Location: Unspecified
(0.0000°N, 0.0000°E)
Time: 09:18:47
(UTC+00:00)

S-56A Canister/Altair - All Passes

Search period start: 24 October 2017 00:00
Search period end: 03 November 2017 00:00
Orbit: 635 x 2498 km, 38.9° (Epoch: 23 October)

Date Brightness Start Highest point End Pass type
(mag) Time Alt. Az. Time Alt. Az. Time Alt. Az.
24 Oct - 06:14:30 10° S 06:21:48 15° SSE 06:28:18 10° SE daylight
24 Oct - 08:17:59 10° SSW 08:30:21 45° SE 08:38:57 10° ENE daylight
24 Oct - 10:25:10 10° WSW 10:35:42 50° NW 10:42:43 10° NNE daylight
24 Oct - 21:01:32 10° NW 21:07:56 66° NE 21:17:47 10° SE night (unlit)
24 Oct - 23:06:08 10° W 23:13:29 32° SSW 23:23:47 10° SSE visible
25 Oct - 01:20:14 10° SSW 01:22:24 11° SSW 01:24:42 10° S visible
25 Oct - 05:41:38 10° S 05:48:09 14° SSE 05:54:08 10° SE daylight
25 Oct - 07:44:37 10° SSW 07:57:09 41° SE 08:06:13 10° ENE daylight
25 Oct - 09:51:22 10° WSW 10:03:01 61° NW 10:10:39 10° NE daylight
25 Oct - 20:29:30 10° NNW 20:35:23 52° NE 20:44:13 10° ESE visible
25 Oct - 22:33:26 10° W 22:40:27 36° SSW 22:50:32 10° SSE night (unlit)
26 Oct - 00:45:38 10° SW 00:48:50 11° SSW 00:52:18 10° S visible
26 Oct - 05:09:01 10° S 05:14:24 12° SSE 05:19:31 10° SE visible
26 Oct - 07:11:18 10° SSW 07:23:52 37° SE 07:33:20 10° E daylight
26 Oct - 09:17:37 10° SW 09:30:12 72° NW 09:38:28 10° NE daylight
26 Oct - 11:30:28 10° WNW 11:34:25 13° NW 11:37:48 10° NNW daylight
26 Oct - 19:57:33 10° NNW 20:02:55 41° NE 20:10:38 10° ESE visible
26 Oct - 22:00:52 10° WNW 22:07:30 40° SW 22:17:17 10° SSE night (unlit)
27 Oct - 00:11:36 10° SW 00:15:22 12° SSW 00:19:34 10° S visible
27 Oct - 04:36:51 10° S 04:40:35 11° SSE 04:44:14 10° SE visible
27 Oct - 06:38:02 10° SSW 06:50:30 33° SE 07:00:18 10° E daylight
27 Oct - 08:43:56 10° SW 08:57:18 83° NW 09:06:11 10° NE daylight
27 Oct - 10:55:20 10° W 11:01:44 18° NW 11:06:49 10° N daylight
27 Oct - 19:25:42 10° NNW 19:30:30 31° NE 19:37:01 10° ESE visible
27 Oct - 21:28:23 10° WNW 21:34:40 45° SW 21:44:03 10° SSE night (unlit)
27 Oct - 23:37:55 10° SW 23:42:00 13° SSW 23:46:42 10° S visible
28 Oct - 06:04:51 10° SSW 06:17:02 30° SSE 06:27:04 10° E daylight
28 Oct - 08:10:18 10° SW 08:24:16 86° SE 08:33:47 10° NE daylight
28 Oct - 10:20:41 10° W 10:29:01 24° NW 10:35:20 10° N daylight
28 Oct - 18:54:00 10° N 18:58:07 23° NE 19:03:21 10° E visible
28 Oct - 20:55:59 10° WNW 21:01:56 52° SW 21:10:52 10° SE visible
28 Oct - 23:04:28 10° SW 23:08:45 14° SSW 23:13:47 10° S visible
29 Oct - 05:31:45 10° SSW 05:43:31 27° SSE 05:53:38 10° E daylight
29 Oct - 07:36:43 10° SW 07:51:08 77° SE 08:01:17 10° NE daylight
29 Oct - 09:46:16 10° WSW 09:56:16 30° NW 10:03:35 10° NNE daylight
29 Oct - 18:22:31 10° N 18:25:44 17° NE 18:29:31 10° E visible
29 Oct - 20:23:40 10° WNW 20:29:17 61° SW 20:37:42 10° SE visible
29 Oct - 22:31:14 10° WSW 22:35:36 15° SSW 22:40:53 10° S visible
30 Oct - 04:58:45 10° SSW 05:09:56 24° SSE 05:19:58 10° E visible
30 Oct - 07:03:14 10° SW 07:17:55 69° SE 07:28:39 10° ENE daylight
30 Oct - 09:12:00 10° WSW 09:23:26 37° NW 09:31:39 10° NNE daylight
30 Oct - 17:51:37 10° NNE 17:53:19 12° NE 17:55:10 10° ENE daylight
30 Oct - 19:51:25 10° NW 19:56:43 74° SW 20:04:34 10° SE visible
30 Oct - 21:58:09 10° WSW 22:02:34 16° SSW 22:07:59 10° S night (unlit)
31 Oct - 04:25:54 10° SSW 04:36:18 22° SSE 04:46:01 10° ESE visible
31 Oct - 06:29:50 10° SW 06:44:35 61° SE 06:55:54 10° ENE daylight
31 Oct - 08:37:53 10° WSW 08:50:31 45° NW 08:59:33 10° NNE daylight
31 Oct - 19:19:14 10° NW 19:24:15 90° NE 19:31:29 10° SE visible
31 Oct - 21:25:13 10° WSW 21:29:37 18° SSW 21:35:07 10° S visible
01 Nov - 03:53:12 10° S 04:02:37 19° SSE 04:11:46 10° ESE visible
01 Nov - 05:56:31 10° SW 06:11:11 55° SE 06:23:00 10° ENE daylight
01 Nov - 08:03:53 10° WSW 08:17:30 53° NW 08:27:21 10° NNE daylight
01 Nov - 10:21:18 10° NW 10:22:50 10° NW 10:24:19 10° NNW daylight
01 Nov - 18:47:06 10° NW 18:51:51 71° NE 18:58:25 10° SE visible
01 Nov - 20:52:24 10° WSW 20:56:45 19° SSW 21:02:18 10° SSE visible
02 Nov - 03:20:44 10° S 03:28:56 16° SSE 03:37:07 10° ESE visible
02 Nov - 05:23:18 10° SSW 05:37:44 49° SE 05:49:55 10° ENE daylight
02 Nov - 07:30:01 10° WSW 07:44:24 61° NW 07:55:01 10° NE daylight
02 Nov - 09:44:15 10° WNW 09:49:52 14° NW 09:54:43 10° NNW daylight
02 Nov - 18:15:01 10° NW 18:19:30 53° NE 18:25:22 10° ESE visible
02 Nov - 20:19:40 10° W 20:23:58 21° SSW 20:29:32 10° SSE visible
